Location: Unspecified
(48.2082°N, 0.0000°E)
Time: 19:13:30
(UTC+00:00)

Tiros 1 despin weight - Pass Details

Date: 27 June 2019
Orbit: 594 x 642 km, 48.2° (Epoch: 20 July)

Event Time Altitude Azimuth Distance (km) Brightness Sun altitude
Rises 02:47:42 0° 284° (WNW) 2,838 ? -9.5°
Reaches altitude 10° 02:50:08 10° 275° (W) 1,930 ? -9.3°
Maximum altitude 02:54:06 33° 211° (SSW) 998 ? -8.8°
Drops below altitude 10° 02:58:04 10° 147° (SSE) 1,920 ? -8.4°
Sets 03:00:30 0° 138° (SE) 2,822 ? -8.2°
